Location: Banios
(43.0451°N, 0.2335°E)
Time: 01:10:13
(UTC+00:00)

Altair - All Passes

Search period start: 12 May 2021 00:00
Search period end: 22 May 2021 00:00
Orbit: 1501 x 1683 km, 47.2° (Epoch: 11 May)

Date Brightness Start Highest point End Pass type
(mag) Time Alt. Az. Time Alt. Az. Time Alt. Az.
12 May - 01:57:28 10° W 02:07:39 72° N 02:17:36 10° ENE visible
12 May - 04:03:08 10° WNW 04:13:17 81° NNE 04:23:03 10° ESE visible
12 May - 06:08:22 10° WNW 06:17:50 52° SW 06:26:57 10° SSE daylight
12 May - 08:16:11 10° W 08:20:45 14° WSW 08:25:15 10° SSW daylight
12 May - 21:25:43 10° S 21:33:34 26° SE 21:41:24 10° ENE visible
12 May - 23:27:08 10° SW 23:37:14 71° SSE 23:47:15 10° ENE visible
13 May - 01:32:10 10° W 01:42:23 73° N 01:52:22 10° ENE visible
13 May - 03:37:51 10° WNW 03:48:02 78° NNE 03:57:50 10° ESE visible
13 May - 05:43:05 10° WNW 05:52:43 56° SW 06:01:57 10° SE daylight
13 May - 07:50:21 10° W 07:55:44 16° WSW 08:01:03 10° SSW daylight
13 May - 21:01:02 10° S 21:08:29 24° SE 21:15:58 10° E visible
13 May - 23:02:00 10° SW 23:12:02 68° SSE 23:22:02 10° ENE visible
14 May - 01:06:53 10° W 01:17:06 74° N 01:27:08 10° ENE visible
14 May - 03:12:35 10° WNW 03:22:47 77° NNE 03:32:37 10° E visible
14 May - 05:17:49 10° WNW 05:27:34 60° SW 05:36:56 10° SE daylight
14 May - 07:24:38 10° W 07:30:43 19° SW 07:36:41 10° SSW daylight
14 May - 20:36:25 10° S 20:43:25 22° SE 20:50:27 10° E visible
14 May - 22:36:53 10° SW 22:46:51 64° SE 22:56:48 10° ENE visible
15 May - 00:41:36 10° W 00:51:49 75° NNW 01:01:53 10° ENE visible
15 May - 02:47:19 10° WNW 02:57:31 75° NNE 03:07:23 10° E visible
15 May - 04:52:33 10° WNW 05:02:25 64° SW 05:11:53 10° SE daylight
15 May - 06:59:03 10° W 07:05:41 21° SW 07:12:11 10° S daylight
15 May - 20:11:52 10° SSE 20:18:22 19° SE 20:24:53 10° E visible
15 May - 22:11:48 10° SW 22:21:40 60° SE 22:31:34 10° ENE visible
16 May - 00:16:19 10° W 00:26:33 77° NNW 00:36:39 10° ENE visible
16 May - 02:22:02 10° WNW 02:32:14 74° N 02:42:09 10° E visible
16 May - 04:27:18 10° WNW 04:37:14 68° SW 04:46:49 10° SE daylight
16 May - 06:33:30 10° W 06:40:39 23° SW 06:47:38 10° S daylight
16 May - 19:47:26 10° SSE 19:53:19 17° ESE 19:59:14 10° E visible
16 May - 21:46:45 10° SW 21:56:30 57° SE 22:06:20 10° ENE visible
16 May - 23:51:03 10° WSW 00:01:17 79° NNW 00:11:25 10° ENE visible
17 May - 01:56:46 10° WNW 02:06:58 72° N 02:16:54 10° E visible
17 May - 04:02:03 10° WNW 04:12:04 71° SSW 04:21:44 10° SE visible
17 May - 06:08:02 10° WNW 06:15:36 26° SW 06:22:59 10° S daylight
17 May - 19:23:08 10° SSE 19:28:17 15° ESE 19:33:27 10° E daylight
17 May - 21:21:42 10° SSW 21:31:21 53° SE 21:41:04 10° ENE visible
17 May - 23:25:47 10° WSW 23:36:01 81° NNW 23:46:11 10° ENE visible
18 May - 01:31:29 10° WNW 01:41:41 71° N 01:51:39 10° E visible
18 May - 03:36:47 10° WNW 03:46:53 75° SSW 03:56:37 10° SE visible
18 May - 05:42:36 10° WNW 05:50:33 28° SW 05:58:17 10° S daylight
18 May - 18:59:03 10° SSE 19:03:15 13° ESE 19:07:29 10° E daylight
18 May - 20:56:41 10° SSW 21:06:12 49° SE 21:15:48 10° ENE visible
18 May - 23:00:32 10° WSW 23:10:45 83° NNW 23:20:57 10° ENE visible
19 May - 01:06:12 10° W 01:16:24 71° N 01:26:23 10° E visible
19 May - 03:11:33 10° WNW 03:21:41 79° SSW 03:31:29 10° SE visible
19 May - 05:17:12 10° WNW 05:25:29 31° SW 05:33:32 10° S daylight
19 May - 18:35:22 10° SE 18:38:14 11° ESE 18:41:07 10° ESE daylight
19 May - 20:31:42 10° SSW 20:41:03 46° SE 20:50:32 10° ENE visible
19 May - 22:35:18 10° WSW 22:45:30 86° NNW 22:55:43 10° ENE visible
20 May - 00:40:55 10° W 00:51:07 70° N 01:01:09 10° E visible
20 May - 02:46:18 10° WNW 02:56:29 82° SSW 03:06:20 10° ESE visible
20 May - 04:51:49 10° WNW 05:00:24 34° SW 05:08:44 10° SSE daylight
20 May - 20:06:45 10° SSW 20:15:56 43° SE 20:25:14 10° ENE visible
20 May - 22:10:04 10° WSW 22:20:15 89° NNW 22:30:29 10° ENE visible
21 May - 00:15:37 10° W 00:25:49 70° N 00:35:53 10° E visible
21 May - 02:21:03 10° WNW 02:31:16 86° SSW 02:41:11 10° ESE visible
21 May - 04:26:29 10° WNW 04:35:19 37° SW 04:43:54 10° SSE daylight
21 May - 19:41:50 10° SSW 19:50:48 40° SE 19:59:56 10° ENE visible
21 May - 21:44:51 10° WSW 21:55:01 88° SSE 22:05:15 10° ENE visible
